• Join FlightAware (Why Join?)
  • Login
  • US Flag 
01:59AM EDT


 

Airport Tracker/Info


-or-


 

Live Flight TrackerFlight Track Log ✈ SWA718 ✈ 18-Apr-2013 ✈ KCRP - KHOU

Flight Track Log - Related Links

Times and Time Zones

All times are in EDT time to prevent confusion due to time zone crossing. See the SWA718 flight status page for this flight to view local times or setup timezone preferences in your user account.

Time Position Orientation Groundspeed Altitude Reporting Facility
EDT Latitude Longitude Course Direction KTS MPH feet Rate Location/Type
04:05PM 27.7792 -97.5136 North 137 158 900  Level Houston Center
04:06PM 27.8292 -97.5092 North 202 232 3,200 2,580 Climbing Houston Center
04:07PM 27.8758 -97.4672 38° Northeast 294 338 5,600 3,240 Climbing Houston Center
04:08PM 27.9447 -97.4103 36° Northeast 304 350 9,300 2,400 Climbing Houston Center
04:09PM 28.0258 -97.3453 35° Northeast 353 406 10,600 1,740 Climbing Houston Center
04:10PM 28.1181 -97.2639 38° Northeast 408 470 13,000 2,100 Climbing Houston Center
04:11PM 28.2169 -97.1789 37° Northeast 442 509 15,000 1,740 Climbing Houston Center
04:12PM 28.3361 -97.0681 39° Northeast 462 532 16,700 1,980 Climbing Houston Center
04:13PM 28.4339 -96.9631 43° Northeast 483 556 19,200 2,340 Climbing Houston Center
04:14PM 28.5375 -96.8544 43° Northeast 504 580 21,600 2,040 Climbing Houston Center
04:15PM 28.6433 -96.7414 43° Northeast 521 600 23,500 1,620 Climbing Houston Center
04:16PM 28.7531 -96.6250 43° Northeast 539 620 25,000  Climbing Houston Center
04:18PM 28.8864 -96.4839 43° Northeast 548 631 23,600 -1,920 Descending Houston Center
04:19PM 28.9906 -96.3725 43° Northeast 521 600 21,100 -2,400 Descending Houston Center
04:19PM 29.0306 -96.3292 43° Northeast 504 580 20,100 -2,880 Descending Houston Center
04:19PM 29.0711 -96.2864 43° Northeast 492 566 18,900 -3,180 Descending Houston Center
04:20PM 29.0922 -96.2644 42° Northeast 506 582 18,200 -3,660 Descending Houston Center
04:20PM 29.1692 -96.1825 43° Northeast 480 552 15,200 -3,540 Descending Houston Center
04:21PM 29.1867 -96.1628 45° Northeast 477 549 14,600 -2,460 Descending Houston Center
04:21PM 29.2631 -96.0786 44° Northeast 420 483 12,700 -2,160 Descending Houston Center
04:22PM 29.2731 -96.0683 42° Northeast 438 504 12,400 -840 Descending Houston Center
04:22PM 29.3194 -95.9789 59° Northeast 352 405 11,900 -600 Descending Houston Center
04:23PM 29.3250 -95.9561 74° East 361 415 11,800 -840 Descending Houston Center
04:23PM 29.3422 -95.8803 75° East 316 364 11,100 -1,080 Descending Houston Center
04:24PM 29.3489 -95.8586 71° East 322 371 10,700 -1,620 Descending Houston Center
04:24PM 29.3608 -95.7825 80° East 312 359 9,500 -1,380 Descending Houston Center
04:25PM 29.3664 -95.7633 72° East 308 354 9,300 -1,020 Descending Houston Center
04:25PM 29.3947 -95.6897 66° East 293 337 8,500 -960 Descending Houston Center
04:26PM 29.4039 -95.6594 71° East 295 339 8,300 -840 Descending Houston Center
04:26PM 29.4211 -95.6100 68° East 261 300 7,700 -1,200 Descending Houston Center
04:27PM 29.4306 -95.5822 69° East 272 313 7,100 -1,800 Descending Houston Center
04:27PM 29.4478 -95.5325 68° East 262 302 5,900 -1,800 Descending Houston Center
04:28PM 29.4567 -95.5044 70° East 262 302 5,300 -1,740 Descending Houston Center
04:28PM 29.4808 -95.4589 59° Northeast 266 306 4,200 -1,500 Descending Houston Center
04:29PM 29.4989 -95.4392 44° Northeast 264 304 3,800 -1,320 Descending Houston Center
04:29PM 29.5325 -95.4047 42° Northeast 241 277 2,900 -1,260 Descending Houston Center
04:30PM 29.5469 -95.3867 47° Northeast 249 287 2,500 -1,020 Descending Houston Center
04:30PM 29.5708 -95.3617 42° Northeast 178 205 1,900 -900 Descending Houston Center
04:31PM 29.5811 -95.3494 46° Northeast 199 229 1,600 -840 Descending Houston Center
04:31PM 29.5992 -95.3294 44° Northeast 123 142 1,100 -780 Descending Houston Center
04:32PM 29.6131 -95.3144 43° Northeast 154 177 800 -720 Descending Houston Center
04:33PM 29.6278 -95.2972 45° Northeast 139 160 400 -840 Descending Houston Center
04:35PM 29.6333 -95.2667 55° Northeast  Level FlightAware Approximate
04:42PM 29.6454 -95.2789 55° Northeast  Level Estimated